Tucumcari, NM

8:36 AM MDT on April 28, 2017 (GMT -0600)
Tucumcari Municipal

Weather History for KTCC - September, 2013

Change the Weather History Date:

Thursday, September 5, 2013

  Actual Average Record
Temperature  
Mean Temperature 80 °F -  
Max Temperature 97 °F 88 °F 102 °F (1945)
Min Temperature 64 °F 59 °F 47 °F (1918)
Cooling Degree Days 14    
Growing Degree Days 30 (Base 50)    
Moisture  
Dew Point 42 °F    
Average Humidity 27    
Maximum Humidity 42    
Minimum Humidity 15    
Precipitation  
Precipitation 0.00 in - - ()
Sea Level Pressure  
Sea Level Pressure 30.00 in    
Wind  
Wind Speed 4 mph (SSW)    
Max Wind Speed 13 mph    
Max Gust Speed 18 mph    
Visibility 10 miles    
Events      
Averages and records for this station are not official NWS values.
T = Trace of Precipitation, MM = Missing Value Source: NWS Daily Summary

Daily Weather History Graph

Daily Weather History Graph

Search for Another Location

Airport or City:

Trip Planner

Search our weather history database for the weather conditions in past years. The results will help you decide how hot, cold, wet, or windy it might be!

Date:

Astronomy

Sep. 05, 2013 Rise Set
Actual Time 6:30 AM MDT 7:15 PM MDT
Civil Twilight 6:04 AM MDT 7:40 PM MDT
Nautical Twilight 5:33 AM MDT 8:11 PM MDT
Astronomical Twilight 5:02 AM MDT 8:42 PM MDT
Moon 6:41 AM MDT (9/5) 7:11 PM MDT (9/5)
Length of Visible Light 13h 36m
Length of Day
12h 45m
New Moon, 0% of the Moon is Illuminated
Sep 5
New Moon
Sep 12
First Quarter
Sep 19
Full
Sep 26
Last Quarter
Oct 4
New

Hourly Weather History & Observations

Time (MDT) Temp. Dew Point Humidity Pressure Visibility Wind Dir Wind Speed Gust Speed Precip Events Conditions
12:53 AM 73.0 °F 42.1 °F 33% 30.00 in 10.0 mi SW 4.6 mph - N/A   Clear
1:53 AM 72.0 °F 41.0 °F 33% 29.99 in 10.0 mi Calm Calm - N/A   Clear
2:53 AM 66.9 °F 42.1 °F 40% 30.01 in 10.0 mi Calm Calm - N/A   Clear
3:53 AM 66.0 °F 42.1 °F 42% 30.01 in 10.0 mi Calm Calm - N/A   Clear
4:53 AM 66.9 °F 41.0 °F 39% 30.01 in 10.0 mi West 3.5 mph - N/A   Clear
5:53 AM 64.9 °F 41.0 °F 42% 30.02 in 10.0 mi SW 8.1 mph - N/A   Clear
6:53 AM 66.0 °F 42.1 °F 42% 30.03 in 10.0 mi SW 5.8 mph - N/A   Clear
7:53 AM 73.0 °F 43.0 °F 34% 30.05 in 10.0 mi SSW 3.5 mph - N/A   Clear
8:53 AM 79.0 °F 43.0 °F 28% 30.05 in 10.0 mi SW 3.5 mph - N/A   Clear
9:53 AM 84.9 °F 44.1 °F 24% 30.05 in 10.0 mi Variable 3.5 mph - N/A   Clear
10:53 AM 90.0 °F 43.0 °F 19% 30.03 in - Variable 5.8 mph - N/A   Clear
11:53 AM 91.0 °F 42.1 °F 18% 30.03 in - WSW 3.5 mph - N/A   Clear
12:53 PM 93.9 °F 43.0 °F 17% 30.00 in 7.0 mi Calm Calm - N/A   Clear
1:53 PM 95.0 °F 42.1 °F 16% 29.99 in 10.0 mi SSE 12.7 mph 18.4 mph N/A   Clear
2:53 PM 93.9 °F 42.1 °F 17% 29.98 in 10.0 mi SSW 6.9 mph 18.4 mph N/A   Clear
3:53 PM 95.0 °F 41.0 °F 15% 29.96 in 10.0 mi SSW 11.5 mph - N/A   Clear
4:53 PM 95.0 °F 39.9 °F 15% 29.94 in 10.0 mi Variable 4.6 mph - N/A   Clear
5:53 PM 93.9 °F 39.9 °F 15% 29.95 in 10.0 mi SW 3.5 mph - N/A   Clear
6:53 PM 91.0 °F 39.0 °F 16% 29.95 in 10.0 mi SSW 5.8 mph - N/A   Clear
7:53 PM 84.9 °F 42.1 °F 22% 29.96 in 10.0 mi South 9.2 mph - N/A   Clear
8:53 PM 79.0 °F 44.1 °F 29% 29.99 in 10.0 mi South 6.9 mph - N/A   Clear
9:53 PM 78.1 °F 44.1 °F 30% 29.99 in 10.0 mi South 8.1 mph - N/A   Clear
10:53 PM 77.0 °F 44.1 °F 31% 29.99 in 10.0 mi SW 5.8 mph - N/A   Clear
11:53 PM 75.9 °F 43.0 °F 31% 29.99 in 10.0 mi SSW 6.9 mph - N/A   Clear